sat.trackr.live / text

‹ back to catalog

STARLINK-5148

NORAD 53978 · 2022-125Q

PAYLOAD ACTIVE UNKNOWN

§ Identity

Operator
Country
US
Launch date
2022-10-05
Launch site
AFWTR
Launch vehicle
Mass (kg)
RCS (m²)

Purposes: comms

External: N2YO · Heavens-Above · Gunter

§ Orbital elements

Epoch: 2026-05-24T17:37:28.884576Z

Period
95.44 min
Inclination
53.2135°
Eccentricity
0.0001533
Mean motion
15.08840633 rev/d
Perigee alt
538.7 km
Apogee alt
540.8 km
Semi-major
6,917.9 km
B*
1.9136e-4
RAAN
237.6566°
Arg perigee
93.5947°
Mean anomaly
266.5221°
Rev number
20,087

§ Raw data

STARLINK-51481 53978U 22125Q   26144.73436209  .00002759  00000+0  19136-3 0  99902 53978  53.2135 237.6566 0001533  93.5947 266.5221 15.08840633200876

JSON: /api/v1/satellites/53978 · /tle

For live sub-satellite position, see the globe view (requires WebGL).

§ Visibility from observer

Set your observer location to see the next 7 days of passes ≥ 10°. The values pass through the URL so the page stays shareable.

No JS? Fill the form by hand. The geolocation button needs JavaScript.